Time,TemperatureF,DewpointF,PressureIn,WindDirection,WindDirectionDegrees,WindSpeedMPH,WindSpeedGustMPH,Humidity,HourlyPrecipIn,Conditions,Clouds,dailyrainin,SoftwareType,DateUTC
2013-06-03 00:01:00,65.1,61.8,29.82,WSW,248,6.4,6.9,89,0.00,CLR,,0.00,WeatherDisplay:10.37,2013-06-03 04:01:00,
2013-06-03 00:02:00,65.1,61.8,29.82,WSW,248,6.4,6.9,89,0.00,CLR,,0.00,WeatherDisplay:10.37,2013-06-03 04:02:00,
2013-06-03 00:07:00,65.1,61.5,29.82,WSW,248,3.3,9.2,88,0.00,CLR,,0.00,WeatherDisplay:10.37,2013-06-03 04:07:00,
2013-06-03 00:12:00,65.1,61.5,29.82,SSW,202,6.0,11.5,88,0.00,CLR,,0.00,WeatherDisplay:10.37,2013-06-03 04:12:00,
2013-06-03 00:17:00,65.1,61.8,29.82,SSW,202,5.6,6.9,89,0.00,CLR,,0.00,WeatherDisplay:10.37,2013-06-03 04:17:00,
2013-06-03 00:22:00,65.1,61.8,29.82,SW,225,4.7,9.2,89,0.00,CLR,,0.00,WeatherDisplay:10.37,2013-06-03 04:22:00,
2013-06-03 00:27:00,65.1,61.8,29.82,SE,135,6.7,11.5,89,0.00,CLR,,0.00,WeatherDisplay:10.37,2013-06-03 04:27:00,
2013-06-03 00:32:00,65.1,61.8,29.82,SSE,158,6.9,13.9,89,0.01,RA,,0.01,WeatherDisplay:10.37,2013-06-03 04:32:00,
2013-06-03 00:37:00,64.9,61.6,29.82,WSW,248,2.2,6.9,89,0.01,,,0.01,WeatherDisplay:10.37,2013-06-03 04:37:00,
2013-06-03 00:42:00,64.9,61.9,29.82,SSW,202,5.2,6.9,90,0.01,CLR,,0.01,WeatherDisplay:10.37,2013-06-03 04:42:00,
2013-06-03 00:47:00,64.9,61.9,29.82,SSW,202,4.9,6.9,90,0.01,CLR,,0.01,WeatherDisplay:10.37,2013-06-03 04:47:00,
2013-06-03 00:52:00,64.9,61.9,29.82,SW,225,2.0,6.9,90,0.01,CLR,,0.01,WeatherDisplay:10.37,2013-06-03 04:52:00,
2013-06-03 00:57:00,64.9,61.9,29.82,SW,225,6.0,6.9,90,0.02,RA,,0.02,WeatherDisplay:10.37,2013-06-03 04:57:00,
2013-06-03 01:02:00,64.9,61.9,29.82,SSE,158,4.0,6.9,90,0.02,RA,,0.02,WeatherDisplay:10.37,2013-06-03 05:02:00,
2013-06-03 01:07:00,64.9,61.9,29.82,WSW,248,3.6,6.9,90,0.02,CLR,,0.02,WeatherDisplay:10.37,2013-06-03 05:07:00,
2013-06-03 01:12:00,64.9,61.9,29.82,WNW,292,4.0,6.9,90,0.02,CLR,,0.02,WeatherDisplay:10.37,2013-06-03 05:12:00,
2013-06-03 01:17:00,64.9,61.9,29.82,WSW,248,4.0,6.9,90,0.02,CLR,,0.02,WeatherDisplay:10.37,2013-06-03 05:17:00,
2013-06-03 01:22:00,64.9,61.9,29.82,WSW,248,2.9,6.9,90,0.02,CLR,,0.02,WeatherDisplay:10.37,2013-06-03 05:22:00,
2013-06-03 01:27:00,64.9,61.9,29.81,SSE,158,4.7,6.9,90,0.01,CLR,,0.02,WeatherDisplay:10.37,2013-06-03 05:27:00,
2013-06-03 01:32:00,64.9,61.9,29.81,SSW,202,1.1,6.9,90,0.01,CLR,,0.02,WeatherDisplay:10.37,2013-06-03 05:32:00,
2013-06-03 01:37:00,64.9,61.9,29.81,SW,225,1.8,6.9,90,0.01,CLR,,0.02,WeatherDisplay:10.37,2013-06-03 05:37:00,
2013-06-03 01:42:00,65.1,62.1,29.81,SSW,202,2.4,6.9,90,0.01,CLR,,0.02,WeatherDisplay:10.37,2013-06-03 05:42:00,
2013-06-03 01:47:00,65.1,62.1,29.81,SW,225,2.4,6.9,90,0.01,CLR,,0.02,WeatherDisplay:10.37,2013-06-03 05:47:00,
2013-06-03 01:52:00,65.1,62.1,29.81,SSW,202,0.2,6.9,90,0.01,CLR,,0.02,WeatherDisplay:10.37,2013-06-03 05:52:00,
2013-06-03 01:57:00,65.1,62.1,29.81,South,180,1.1,6.9,90,0.00,CLR,,0.02,WeatherDisplay:10.37,2013-06-03 05:57:00,
2013-06-03 02:02:00,65.1,62.1,29.80,SSW,202,1.6,6.9,90,0.00,CLR,,0.02,WeatherDisplay:10.37,2013-06-03 06:02:00,
2013-06-03 02:07:00,65.3,62.3,29.80,SSW,202,8.5,8.5,90,0.00,CLR,,0.02,WeatherDisplay:10.37,2013-06-03 06:07:00,
2013-06-03 02:12:00,65.3,62.3,29.80,SSW,202,3.1,6.9,90,0.00,CLR,,0.02,WeatherDisplay:10.37,2013-06-03 06:12:00,
2013-06-03 02:17:00,65.5,62.5,29.80,SSW,202,4.7,6.9,90,0.00,CLR,,0.02,WeatherDisplay:10.37,2013-06-03 06:17:00,
2013-06-03 02:22:00,65.3,62.3,29.80,SSW,202,3.3,10.4,90,0.00,CLR,,0.02,WeatherDisplay:10.37,2013-06-03 06:22:00,
2013-06-03 02:27:00,65.1,62.1,29.80,SSW,202,5.6,6.9,90,0.00,CLR,,0.02,WeatherDisplay:10.37,2013-06-03 06:27:00,
2013-06-03 02:32:00,64.9,61.9,29.80,SSW,202,5.2,8.1,90,0.00,CLR,,0.02,WeatherDisplay:10.37,2013-06-03 06:32:00,
2013-06-03 02:37:00,64.9,61.9,29.80,WSW,248,1.8,9.2,90,0.00,CLR,,0.02,WeatherDisplay:10.37,2013-06-03 06:37:00,
2013-06-03 02:42:00,64.8,61.8,29.80,SSW,202,7.1,7.1,90,0.00,CLR,,0.02,WeatherDisplay:10.37,2013-06-03 06:42:00,
2013-06-03 02:47:00,64.8,61.8,29.80,South,180,1.8,6.9,90,0.00,CLR,,0.02,WeatherDisplay:10.37,2013-06-03 06:47:00,
2013-06-03 02:52:00,64.8,61.8,29.80,SSW,202,3.3,8.1,90,0.01,RA,,0.03,WeatherDisplay:10.37,2013-06-03 06:52:00,
2013-06-03 02:57:00,64.8,61.8,29.80,SSW,202,5.9,10.4,90,0.07,RA,,0.10,WeatherDisplay:10.37,2013-06-03 06:57:00,
2013-06-03 03:02:00,64.8,61.8,29.80,South,180,4.5,6.9,90,0.22,RA,,0.24,WeatherDisplay:10.37,2013-06-03 07:02:00,
2013-06-03 03:07:00,64.6,61.9,29.80,SW,225,6.7,11.5,91,0.28,RA,,0.30,WeatherDisplay:10.37,2013-06-03 07:07:00,
2013-06-03 03:12:00,64.6,61.9,29.80,WSW,248,3.6,6.9,91,0.30,RA,,0.31,WeatherDisplay:10.37,2013-06-03 07:12:00,
2013-06-03 03:17:00,64.4,61.7,29.79,SSW,202,3.6,6.9,91,0.30,RA,,0.31,WeatherDisplay:10.37,2013-06-03 07:17:00,
2013-06-03 03:22:00,64.2,61.5,29.79,SW,225,9.9,9.9,91,0.30,CLR,,0.31,WeatherDisplay:10.37,2013-06-03 07:22:00,
2013-06-03 03:27:00,64.0,61.4,29.79,South,180,6.9,9.2,91,0.30,CLR,,0.31,WeatherDisplay:10.37,2013-06-03 07:27:00,
2013-06-03 03:32:00,64.0,61.4,29.79,SSW,202,5.2,9.2,91,0.30,CLR,,0.31,WeatherDisplay:10.37,2013-06-03 07:32:00,
2013-06-03 03:37:00,64.0,61.4,29.79,SSW,202,6.7,6.9,91,0.30,CLR,,0.31,WeatherDisplay:10.37,2013-06-03 07:37:00,
2013-06-03 03:42:00,64.0,61.7,29.79,WSW,248,5.6,8.1,92,0.30,CLR,,0.31,WeatherDisplay:10.37,2013-06-03 07:42:00,
2013-06-03 03:47:00,64.2,61.8,29.79,WSW,248,8.7,8.7,92,0.30,CLR,,0.31,WeatherDisplay:10.37,2013-06-03 07:47:00,
2013-06-03 03:52:00,64.2,61.8,29.79,SSW,202,2.4,6.9,92,0.28,CLR,,0.31,WeatherDisplay:10.37,2013-06-03 07:52:00,
2013-06-03 03:57:00,64.4,62.0,29.79,WSW,248,2.4,6.9,92,0.26,RA,,0.35,WeatherDisplay:10.37,2013-06-03 07:57:00,
2013-06-03 04:02:00,64.4,62.0,29.79,WSW,248,2.2,8.1,92,0.12,RA,,0.37,WeatherDisplay:10.37,2013-06-03 08:02:00,
2013-06-03 04:07:00,64.4,62.0,29.79,South,180,2.4,6.9,92,0.07,RA,,0.37,WeatherDisplay:10.37,2013-06-03 08:07:00,
2013-06-03 04:12:00,64.6,62.2,29.79,SSW,202,4.0,6.9,92,0.09,RA,,0.41,WeatherDisplay:10.37,2013-06-03 08:12:00,
2013-06-03 04:17:00,64.6,62.2,29.79,SW,225,1.8,10.4,92,0.11,RA,,0.43,WeatherDisplay:10.37,2013-06-03 08:17:00,
2013-06-03 04:22:00,65.1,63.0,29.80,SW,225,2.9,6.9,93,0.13,RA,,0.44,WeatherDisplay:10.37,2013-06-03 08:22:00,
2013-06-03 04:27:00,65.3,63.2,29.80,SSW,202,2.6,8.1,93,0.13,RA,,0.44,WeatherDisplay:10.37,2013-06-03 08:27:00,
2013-06-03 04:33:00,65.3,62.9,29.80,West,270,6.9,7.1,92,0.14,RA,,0.46,WeatherDisplay:10.37,2013-06-03 08:33:00,
2013-06-03 04:38:00,65.1,63.0,29.80,SSW,202,5.6,6.9,93,0.14,RA,,0.46,WeatherDisplay:10.37,2013-06-03 08:38:00,
2013-06-03 04:43:00,65.1,62.7,29.80,WSW,248,3.3,6.9,92,0.14,CLR,,0.46,WeatherDisplay:10.37,2013-06-03 08:43:00,
2013-06-03 04:48:00,64.9,62.6,29.80,SW,225,6.7,6.9,92,0.14,CLR,,0.46,WeatherDisplay:10.37,2013-06-03 08:48:00,
2013-06-03 04:53:00,64.8,62.4,29.80,WNW,292,6.7,6.9,92,0.15,RA,,0.47,WeatherDisplay:10.37,2013-06-03 08:53:00,
2013-06-03 04:58:00,64.8,62.4,29.80,SSW,202,1.1,6.9,92,0.11,RA,,0.48,WeatherDisplay:10.37,2013-06-03 08:58:00,
2013-06-03 05:03:00,64.6,62.2,29.80,South,180,6.2,6.9,92,0.12,RA,,0.49,WeatherDisplay:10.37,2013-06-03 09:03:00,
2013-06-03 05:08:00,64.6,62.2,29.80,WSW,248,3.3,8.1,92,0.12,RA,,0.50,WeatherDisplay:10.37,2013-06-03 09:08:00,
2013-06-03 05:13:00,64.4,62.0,29.80,SSW,202,3.6,6.9,92,0.10,RA,,0.51,WeatherDisplay:10.37,2013-06-03 09:13:00,
2013-06-03 05:18:00,64.4,62.0,29.80,SSW,202,2.9,6.9,92,0.08,RA,,0.52,WeatherDisplay:10.37,2013-06-03 09:18:00,
2013-06-03 05:23:00,64.6,62.2,29.80,SSW,202,3.1,6.9,92,0.07,RA,,0.52,WeatherDisplay:10.37,2013-06-03 09:23:00,
2013-06-03 05:28:00,64.6,62.2,29.80,South,180,3.6,6.9,92,0.07,,,0.52,WeatherDisplay:10.37,2013-06-03 09:28:00,
2013-06-03 05:33:00,64.6,62.2,29.79,SW,225,2.2,6.9,92,0.06,CLR,,0.52,WeatherDisplay:10.37,2013-06-03 09:33:00,
2013-06-03 05:38:00,64.8,62.4,29.80,South,180,0.7,6.9,92,0.06,CLR,,0.52,WeatherDisplay:10.37,2013-06-03 09:38:00,
2013-06-03 05:43:00,64.8,62.4,29.79,SSW,202,6.7,6.9,92,0.06,CLR,,0.52,WeatherDisplay:10.37,2013-06-03 09:43:00,
2013-06-03 05:48:00,64.8,62.4,29.79,SSE,158,6.7,6.9,92,0.07,RA,,0.53,WeatherDisplay:10.37,2013-06-03 09:48:00,
2013-06-03 05:53:00,64.9,62.6,29.79,SW,225,2.0,6.9,92,0.07,RA,,0.55,WeatherDisplay:10.37,2013-06-03 09:53:00,
2013-06-03 05:58:00,64.9,62.6,29.79,SW,225,0.7,6.9,92,0.08,RA,,0.56,WeatherDisplay:10.37,2013-06-03 09:58:00,
2013-06-03 06:03:00,65.1,62.7,29.79,West,270,1.1,6.9,92,0.07,RA,,0.56,WeatherDisplay:10.37,2013-06-03 10:03:00,
2013-06-03 06:08:00,65.1,62.7,29.79,WSW,248,3.1,6.9,92,0.07,RA,,0.57,WeatherDisplay:10.37,2013-06-03 10:08:00,
2013-06-03 06:13:00,65.1,62.7,29.80,SW,225,2.0,6.9,92,0.06,RA,,0.57,WeatherDisplay:10.37,2013-06-03 10:13:00,
2013-06-03 06:18:00,65.1,62.7,29.80,SSW,202,3.6,6.9,92,0.05,CLR,,0.57,WeatherDisplay:10.37,2013-06-03 10:18:00,
2013-06-03 06:23:00,65.3,62.9,29.80,WSW,248,8.3,8.3,92,0.05,CLR,,0.57,WeatherDisplay:10.37,2013-06-03 10:23:00,
2013-06-03 06:28:00,65.3,62.9,29.80,SSW,202,7.6,7.6,92,0.06,RA,,0.58,WeatherDisplay:10.37,2013-06-03 10:28:00,
2013-06-03 06:33:00,65.3,62.9,29.80,WSW,248,2.4,6.9,92,0.06,RA,,0.58,WeatherDisplay:10.37,2013-06-03 10:33:00,
2013-06-03 06:38:00,65.1,62.7,29.80,SSE,158,2.0,6.9,92,0.06,,,0.58,WeatherDisplay:10.37,2013-06-03 10:38:00,
2013-06-03 06:43:00,65.1,62.7,29.80,SSW,202,4.9,9.2,92,0.06,CLR,,0.58,WeatherDisplay:10.37,2013-06-03 10:43:00,
2013-06-03 06:48:00,65.1,62.7,29.80,West,270,3.8,6.9,92,0.06,RA,,0.59,WeatherDisplay:10.37,2013-06-03 10:48:00,
2013-06-03 06:53:00,65.1,62.7,29.80,SSW,202,3.6,6.9,92,0.05,RA,,0.59,WeatherDisplay:10.37,2013-06-03 10:53:00,
2013-06-03 06:58:00,65.1,62.7,29.80,NNW,338,2.0,6.9,92,0.03,,,0.59,WeatherDisplay:10.37,2013-06-03 10:58:00,
2013-06-03 07:03:00,65.1,62.7,29.80,SSW,202,3.3,6.9,92,0.03,CLR,,0.59,WeatherDisplay:10.37,2013-06-03 11:03:00,
2013-06-03 07:08:00,65.1,62.7,29.80,WSW,248,1.1,6.9,92,0.02,CLR,,0.59,WeatherDisplay:10.37,2013-06-03 11:08:00,
2013-06-03 07:13:00,65.1,62.7,29.81,SSW,202,2.9,6.9,92,0.02,CLR,,0.59,WeatherDisplay:10.37,2013-06-03 11:13:00,
2013-06-03 07:18:00,65.3,62.9,29.80,SW,225,3.6,6.9,92,0.03,RA,,0.60,WeatherDisplay:10.37,2013-06-03 11:18:00,
2013-06-03 07:23:00,65.5,63.1,29.81,WSW,248,10.5,10.5,92,0.03,RA,,0.60,WeatherDisplay:10.37,2013-06-03 11:23:00,
2013-06-03 07:28:00,65.3,62.9,29.81,WSW,248,7.6,7.6,92,0.02,CLR,,0.60,WeatherDisplay:10.37,2013-06-03 11:28:00,
2013-06-03 07:33:00,65.3,62.9,29.81,SW,225,4.0,9.2,92,0.02,CLR,,0.61,WeatherDisplay:10.37,2013-06-03 11:33:00,
2013-06-03 07:38:00,65.3,62.9,29.81,WSW,248,2.4,6.9,92,0.03,RA,,0.61,WeatherDisplay:10.37,2013-06-03 11:38:00,
2013-06-03 07:43:00,65.5,63.1,29.81,North,0,1.4,6.9,92,0.03,RA,,0.61,WeatherDisplay:10.37,2013-06-03 11:43:00,
2013-06-03 07:48:00,65.5,63.1,29.81,WSW,248,1.4,6.9,92,0.02,CLR,,0.61,WeatherDisplay:10.37,2013-06-03 11:48:00,
2013-06-03 07:53:00,65.7,63.3,29.81,SSW,202,1.6,6.9,92,0.02,CLR,,0.61,WeatherDisplay:10.37,2013-06-03 11:53:00,
2013-06-03 07:58:00,65.8,63.5,29.81,West,270,0.7,6.9,92,0.02,CLR,,0.61,WeatherDisplay:10.37,2013-06-03 11:58:00,
2013-06-03 08:03:00,65.8,63.5,29.81,SSW,202,1.4,6.9,92,0.02,CLR,,0.61,WeatherDisplay:10.37,2013-06-03 12:03:00,
2013-06-03 08:08:00,66.0,63.6,29.81,SSW,202,1.1,6.9,92,0.02,CLR,,0.61,WeatherDisplay:10.37,2013-06-03 12:08:00,
2013-06-03 08:13:00,66.2,63.8,29.81,WSW,248,2.4,6.9,92,0.02,CLR,,0.61,WeatherDisplay:10.37,2013-06-03 12:13:00,
2013-06-03 08:18:00,66.2,64.1,29.81,SW,225,2.6,6.9,93,0.01,CLR,,0.61,WeatherDisplay:10.37,2013-06-03 12:18:00,
2013-06-03 08:23:00,66.4,64.3,29.81,SW,225,2.4,6.9,93,0.01,CLR,,0.61,WeatherDisplay:10.37,2013-06-03 12:23:00,
2013-06-03 08:28:00,66.4,64.3,29.81,SSW,202,2.4,6.9,93,0.01,CLR,,0.61,WeatherDisplay:10.37,2013-06-03 12:28:00,
2013-06-03 08:33:00,66.6,64.5,29.81,WSW,248,4.0,6.9,93,0.01,CLR,,0.61,WeatherDisplay:10.37,2013-06-03 12:33:00,
2013-06-03 08:38:00,66.7,64.7,29.81,SW,225,0.0,6.9,93,0.00,CLR,,0.61,WeatherDisplay:10.37,2013-06-03 12:38:00,
2013-06-03 08:43:00,66.9,64.5,29.81,SSW,202,0.9,6.9,92,0.00,CLR,,0.61,WeatherDisplay:10.37,2013-06-03 12:43:00,
2013-06-03 08:48:00,67.1,64.7,29.81,WSW,248,0.9,6.9,92,0.00,CLR,,0.61,WeatherDisplay:10.37,2013-06-03 12:48:00,
2013-06-03 08:53:00,67.3,64.9,29.81,South,180,3.8,6.9,92,0.00,CLR,,0.61,WeatherDisplay:10.37,2013-06-03 12:53:00,
2013-06-03 08:58:00,67.5,65.1,29.81,SSW,202,4.7,6.9,92,0.00,CLR,,0.61,WeatherDisplay:10.37,2013-06-03 12:58:00,
2013-06-03 09:03:00,67.5,65.1,29.81,SSW,202,1.1,6.9,92,0.00,CLR,,0.61,WeatherDisplay:10.37,2013-06-03 13:03:00,
2013-06-03 09:08:00,67.3,64.6,29.81,WSW,248,2.4,6.9,91,0.00,CLR,,0.61,WeatherDisplay:10.37,2013-06-03 13:08:00,
2013-06-03 09:13:00,67.3,64.6,29.81,SSW,202,3.3,6.9,91,0.00,CLR,,0.61,WeatherDisplay:10.37,2013-06-03 13:13:00,
2013-06-03 09:18:00,67.3,64.6,29.81,SSW,202,3.8,6.9,91,0.00,CLR,,0.61,WeatherDisplay:10.37,2013-06-03 13:18:00,
2013-06-03 09:23:00,67.3,64.6,29.81,South,180,2.0,6.9,91,0.00,CLR,,0.61,WeatherDisplay:10.37,2013-06-03 13:23:00,
2013-06-03 09:28:00,67.3,64.6,29.81,South,180,0.5,6.9,91,0.00,CLR,,0.61,WeatherDisplay:10.37,2013-06-03 13:28:00,
2013-06-03 09:33:00,67.1,64.4,29.81,South,180,2.4,6.9,91,0.00,CLR,,0.61,WeatherDisplay:10.37,2013-06-03 13:33:00,
2013-06-03 09:38:00,66.9,64.2,29.81,SW,225,1.1,6.9,91,0.00,CLR,,0.61,WeatherDisplay:10.37,2013-06-03 13:38:00,
2013-06-03 09:43:00,66.7,64.0,29.81,SW,225,1.1,6.9,91,0.01,RA,,0.62,WeatherDisplay:10.37,2013-06-03 13:43:00,
2013-06-03 09:48:00,66.7,64.0,29.81,South,180,0.5,6.9,91,0.01,RA,,0.62,WeatherDisplay:10.37,2013-06-03 13:48:00,
2013-06-03 09:53:00,66.9,64.2,29.80,South,180,1.1,6.9,91,0.01,,,0.62,WeatherDisplay:10.37,2013-06-03 13:53:00,
2013-06-03 09:58:00,66.9,64.2,29.80,SSE,158,1.8,6.9,91,0.01,CLR,,0.62,WeatherDisplay:10.37,2013-06-03 13:58:00,
2013-06-03 10:03:00,66.9,64.2,29.80,South,180,2.4,6.9,91,0.02,RA,,0.63,WeatherDisplay:10.37,2013-06-03 14:03:00,
2013-06-03 10:08:00,66.9,63.9,29.80,SW,225,1.1,6.9,90,0.02,RA,,0.63,WeatherDisplay:10.37,2013-06-03 14:08:00,
2013-06-03 10:13:00,66.7,63.7,29.80,SSW,202,0.5,6.9,90,0.03,RA,,0.64,WeatherDisplay:10.37,2013-06-03 14:13:00,
2013-06-03 10:18:00,66.6,63.5,29.80,SSE,158,1.1,6.9,90,0.03,RA,,0.65,WeatherDisplay:10.37,2013-06-03 14:18:00,
2013-06-03 10:23:00,66.2,63.2,29.80,SW,225,3.1,6.9,90,0.05,RA,,0.66,WeatherDisplay:10.37,2013-06-03 14:23:00,
2013-06-03 10:28:00,65.7,62.0,29.80,SSW,202,3.8,6.9,88,0.08,RA,,0.70,WeatherDisplay:10.37,2013-06-03 14:28:00,
2013-06-03 10:33:00,65.1,61.8,29.80,South,180,0.7,6.9,89,0.13,RA,,0.74,WeatherDisplay:10.37,2013-06-03 14:33:00,
2013-06-03 10:38:00,64.9,61.6,29.80,SSW,202,1.8,6.9,89,0.17,RA,,0.81,WeatherDisplay:10.37,2013-06-03 14:38:00,
2013-06-03 10:43:00,64.6,61.3,29.80,South,180,1.1,6.9,89,0.21,RA,,0.83,WeatherDisplay:10.37,2013-06-03 14:43:00,
2013-06-03 10:48:00,64.4,61.1,29.80,SW,225,2.6,6.9,89,0.24,RA,,0.85,WeatherDisplay:10.37,2013-06-03 14:48:00,
2013-06-03 10:53:00,64.4,61.4,29.80,SSW,202,5.4,6.9,90,0.31,RA,,0.93,WeatherDisplay:10.37,2013-06-03 14:53:00,
2013-06-03 10:58:00,64.2,61.2,29.80,SSE,158,1.8,6.9,90,0.33,RA,,0.95,WeatherDisplay:10.37,2013-06-03 14:58:00,
2013-06-03 11:03:00,64.0,61.0,29.80,South,180,6.0,6.9,90,0.35,RA,,0.98,WeatherDisplay:10.37,2013-06-03 15:03:00,
2013-06-03 11:08:00,64.0,61.0,29.80,SSW,202,3.1,8.1,90,0.37,RA,,1.00,WeatherDisplay:10.37,2013-06-03 15:08:00,
2013-06-03 11:13:00,64.2,61.2,29.80,South,180,1.6,6.9,90,0.39,RA,,1.05,WeatherDisplay:10.37,2013-06-03 15:13:00,
2013-06-03 11:18:00,64.2,61.2,29.79,SSW,202,2.6,6.9,90,0.44,RA,,1.07,WeatherDisplay:10.37,2013-06-03 15:18:00,
2013-06-03 11:23:00,64.4,61.4,29.80,SSW,202,1.1,6.9,90,0.44,RA,,1.12,WeatherDisplay:10.37,2013-06-03 15:23:00,
2013-06-03 11:28:00,64.2,61.2,29.79,SSW,202,5.2,6.9,90,0.46,RA,,1.16,WeatherDisplay:10.37,2013-06-03 15:28:00,
2013-06-03 11:33:00,64.0,61.0,29.80,SSW,202,1.4,6.9,90,0.43,RA,,1.18,WeatherDisplay:10.37,2013-06-03 15:33:00,
2013-06-03 11:38:00,64.0,61.0,29.79,SSW,202,0.9,6.9,90,0.41,RA,,1.20,WeatherDisplay:10.37,2013-06-03 15:38:00,
2013-06-03 11:43:00,64.2,61.2,29.79,SW,225,3.8,6.9,90,0.40,RA,,1.24,WeatherDisplay:10.37,2013-06-03 15:43:00,
2013-06-03 11:48:00,64.0,61.0,29.79,SW,225,1.8,6.9,90,0.43,RA,,1.28,WeatherDisplay:10.37,2013-06-03 15:48:00,
2013-06-03 11:53:00,64.0,61.0,29.80,SW,225,0.5,6.9,90,0.39,RA,,1.32,WeatherDisplay:10.37,2013-06-03 15:53:00,
2013-06-03 11:58:00,64.2,61.2,29.79,SSW,202,3.3,6.9,90,0.44,RA,,1.40,WeatherDisplay:10.37,2013-06-03 15:58:00,
2013-06-03 12:03:00,64.2,61.2,29.79,SSW,202,0.5,6.9,90,0.51,RA,,1.49,WeatherDisplay:10.37,2013-06-03 16:03:00,
2013-06-03 12:08:00,64.2,61.2,29.79,WSW,248,1.4,6.9,90,0.64,RA,,1.65,WeatherDisplay:10.37,2013-06-03 16:08:00,
2013-06-03 12:13:00,64.2,61.5,29.80,WNW,292,0.7,6.9,91,0.72,RA,,1.76,WeatherDisplay:10.37,2013-06-03 16:13:00,
2013-06-03 12:18:00,64.4,61.7,29.80,SW,225,2.4,6.9,91,0.71,RA,,1.80,WeatherDisplay:10.37,2013-06-03 16:18:00,
2013-06-03 12:23:00,64.4,61.7,29.80,WSW,248,3.3,6.9,91,0.71,RA,,1.82,WeatherDisplay:10.37,2013-06-03 16:23:00,
2013-06-03 12:28:00,64.6,61.9,29.80,SSW,202,1.8,6.9,91,0.70,RA,,1.85,WeatherDisplay:10.37,2013-06-03 16:28:00,
2013-06-03 12:33:00,64.8,62.1,29.79,SSE,158,2.2,6.9,91,0.70,RA,,1.87,WeatherDisplay:10.37,2013-06-03 16:33:00,
2013-06-03 12:38:00,64.8,62.1,29.79,SW,225,0.2,6.9,91,0.68,RA,,1.89,WeatherDisplay:10.37,2013-06-03 16:38:00,
2013-06-03 12:43:00,64.8,62.4,29.79,WSW,248,2.6,6.9,92,0.66,RA,,1.89,WeatherDisplay:10.37,2013-06-03 16:43:00,
2013-06-03 12:48:00,64.8,62.4,29.79,WNW,292,1.4,6.9,92,0.61,RA,,1.90,WeatherDisplay:10.37,2013-06-03 16:48:00,
2013-06-03 12:53:00,64.9,62.6,29.79,South,180,2.6,6.9,92,0.59,RA,,1.90,WeatherDisplay:10.37,2013-06-03 16:53:00,
2013-06-03 12:58:00,65.1,62.7,29.79,SSW,202,1.8,6.9,92,0.51,RA,,1.90,WeatherDisplay:10.37,2013-06-03 16:58:00,
2013-06-03 13:03:00,65.3,62.6,29.79,SSW,202,7.6,7.6,91,0.41,CLR,,1.90,WeatherDisplay:10.37,2013-06-03 17:03:00,
2013-06-03 13:08:00,65.3,62.6,29.79,SSW,202,4.0,6.9,91,0.26,CLR,,1.90,WeatherDisplay:10.37,2013-06-03 17:08:00,
2013-06-03 13:13:00,65.5,62.8,29.79,WNW,292,1.8,6.9,91,0.15,CLR,,1.90,WeatherDisplay:10.37,2013-06-03 17:13:00,
2013-06-03 13:18:00,65.7,63.0,29.79,West,270,3.3,6.9,91,0.11,CLR,,1.90,WeatherDisplay:10.37,2013-06-03 17:18:00,
2013-06-03 13:23:00,65.8,63.1,29.79,SW,225,3.8,6.9,91,0.09,RA,,1.91,WeatherDisplay:10.37,2013-06-03 17:23:00,
2013-06-03 13:28:00,65.7,63.0,29.79,WSW,248,1.8,4.6,91,0.07,RA,,1.92,WeatherDisplay:10.37,2013-06-03 17:28:00,
2013-06-03 13:33:00,65.7,63.0,29.80,WSW,248,6.0,6.0,91,0.05,RA,,1.92,WeatherDisplay:10.37,2013-06-03 17:33:00,
2013-06-03 13:38:00,65.7,62.6,29.79,SSW,202,1.1,6.9,90,0.04,,,1.92,WeatherDisplay:10.37,2013-06-03 17:38:00,
2013-06-03 13:43:00,65.8,63.1,29.79,SSW,202,0.5,6.9,91,0.03,CLR,,1.92,WeatherDisplay:10.37,2013-06-03 17:43:00,
2013-06-03 13:48:00,66.0,63.6,29.80,SSW,202,3.1,4.0,92,0.03,CLR,,1.92,WeatherDisplay:10.37,2013-06-03 17:48:00,
2013-06-03 13:53:00,66.0,63.3,29.80,WNW,292,3.8,4.6,91,0.02,CLR,,1.92,WeatherDisplay:10.37,2013-06-03 17:53:00,
2013-06-03 13:58:00,65.8,63.1,29.79,SW,225,4.9,4.9,91,0.02,CLR,,1.93,WeatherDisplay:10.37,2013-06-03 17:58:00,
2013-06-03 14:03:00,65.8,63.1,29.79,SSE,158,2.2,4.6,91,0.04,RA,,1.94,WeatherDisplay:10.37,2013-06-03 18:03:00,
2013-06-03 14:08:00,65.5,62.5,29.79,SSW,202,1.1,5.8,90,0.06,RA,,1.98,WeatherDisplay:10.37,2013-06-03 18:08:00,
2013-06-03 14:13:00,65.5,62.5,29.79,SSW,202,2.4,5.8,90,0.11,RA,,2.01,WeatherDisplay:10.37,2013-06-03 18:13:00,
2013-06-03 14:18:00,65.5,62.5,29.78,SSW,202,0.5,4.0,90,0.11,RA,,2.01,WeatherDisplay:10.37,2013-06-03 18:18:00,
2013-06-03 14:23:00,65.5,62.5,29.78,WSW,248,2.4,4.0,90,0.11,RA,,2.02,WeatherDisplay:10.37,2013-06-03 18:23:00,
2013-06-03 14:28:00,65.5,62.5,29.78,SSW,202,3.6,4.0,90,0.10,RA,,2.02,WeatherDisplay:10.37,2013-06-03 18:28:00,
2013-06-03 14:33:00,65.5,62.5,29.79,WSW,248,0.5,4.0,90,0.11,RA,,2.03,WeatherDisplay:10.37,2013-06-03 18:33:00,
2013-06-03 14:38:00,65.3,62.3,29.78,SSW,202,4.7,4.7,90,0.12,RA,,2.05,WeatherDisplay:10.37,2013-06-03 18:38:00,
2013-06-03 14:43:00,65.1,62.1,29.79,WSW,248,1.8,4.0,90,0.15,RA,,2.06,WeatherDisplay:10.37,2013-06-03 18:43:00,
2013-06-03 14:48:00,64.9,61.9,29.78,WSW,248,2.9,4.0,90,0.15,RA,,2.07,WeatherDisplay:10.37,2013-06-03 18:48:00,
2013-06-03 14:53:00,64.9,61.9,29.78,SW,225,1.4,4.0,90,0.15,RA,,2.07,WeatherDisplay:10.37,2013-06-03 18:53:00,
2013-06-03 14:58:00,64.9,61.9,29.78,South,180,4.3,4.3,90,0.15,CLR,,2.07,WeatherDisplay:10.37,2013-06-03 18:58:00,
2013-06-03 15:03:00,64.9,61.9,29.78,SW,225,4.0,4.6,90,0.13,CLR,,2.07,WeatherDisplay:10.37,2013-06-03 19:03:00,
2013-06-03 15:08:00,64.8,61.8,29.78,WSW,248,0.9,4.0,90,0.12,RA,,2.09,WeatherDisplay:10.37,2013-06-03 19:08:00,
2013-06-03 15:13:00,64.8,61.8,29.78,WSW,248,3.3,4.0,90,0.09,RA,,2.10,WeatherDisplay:10.37,2013-06-03 19:13:00,
2013-06-03 15:18:00,64.8,61.8,29.78,SE,135,2.4,4.0,90,0.09,RA,,2.10,WeatherDisplay:10.37,2013-06-03 19:18:00,
2013-06-03 15:23:00,64.8,61.8,29.78,West,270,4.5,4.5,90,0.09,RA,,2.11,WeatherDisplay:10.37,2013-06-03 19:23:00,
2013-06-03 15:28:00,64.8,61.8,29.78,SW,225,3.3,4.6,90,0.09,RA,,2.11,WeatherDisplay:10.37,2013-06-03 19:28:00,
2013-06-03 15:33:00,64.8,61.8,29.78,West,270,0.7,4.0,90,0.08,CLR,,2.11,WeatherDisplay:10.37,2013-06-03 19:33:00,
2013-06-03 15:38:00,64.8,61.8,29.78,NNE,22,0.5,4.0,90,0.08,RA,,2.12,WeatherDisplay:10.37,2013-06-03 19:38:00,
2013-06-03 15:43:00,64.8,62.1,29.78,West,270,1.1,4.0,91,0.06,RA,,2.12,WeatherDisplay:10.37,2013-06-03 19:43:00,
2013-06-03 15:48:00,64.6,61.9,29.78,SSE,158,3.6,4.0,91,0.05,,,2.12,WeatherDisplay:10.37,2013-06-03 19:48:00,
2013-06-03 15:53:00,64.4,61.7,29.78,West,270,1.8,5.8,91,0.06,RA,,2.13,WeatherDisplay:10.37,2013-06-03 19:53:00,
2013-06-03 15:58:00,64.4,61.7,29.78,SSW,202,3.8,4.0,91,0.06,RA,,2.13,WeatherDisplay:10.37,2013-06-03 19:58:00,
2013-06-03 16:03:00,64.2,61.5,29.78,SW,225,0.5,5.8,91,0.07,RA,,2.14,WeatherDisplay:10.37,2013-06-03 20:03:00,
2013-06-03 16:08:00,64.0,61.4,29.78,West,270,2.4,4.0,91,0.07,RA,,2.15,WeatherDisplay:10.37,2013-06-03 20:08:00,
2013-06-03 16:13:00,63.9,61.2,29.78,SW,225,1.1,8.1,91,0.07,RA,,2.19,WeatherDisplay:10.37,2013-06-03 20:13:00,
2013-06-03 16:18:00,63.9,61.2,29.77,SW,225,0.7,8.1,91,0.10,RA,,2.21,WeatherDisplay:10.37,2013-06-03 20:18:00,
2013-06-03 16:23:00,63.9,61.2,29.77,SW,225,7.4,7.4,91,0.11,RA,,2.23,WeatherDisplay:10.37,2013-06-03 20:23:00,
2013-06-03 16:28:00,63.9,61.2,29.77,SW,225,3.8,4.0,91,0.14,RA,,2.26,WeatherDisplay:10.37,2013-06-03 20:28:00,
2013-06-03 16:33:00,63.7,61.0,29.77,SW,225,1.8,9.2,91,0.20,RA,,2.33,WeatherDisplay:10.37,2013-06-03 20:33:00,
2013-06-03 16:38:00,63.7,61.0,29.77,SSW,202,2.0,4.0,91,0.26,RA,,2.39,WeatherDisplay:10.37,2013-06-03 20:38:00,
2013-06-03 16:43:00,63.5,60.8,29.77,SW,225,3.1,4.0,91,0.30,RA,,2.44,WeatherDisplay:10.37,2013-06-03 20:43:00,
2013-06-03 16:48:00,63.5,60.8,29.77,WSW,248,2.6,4.0,91,0.33,RA,,2.47,WeatherDisplay:10.37,2013-06-03 20:48:00,
2013-06-03 16:53:00,63.5,60.8,29.76,SSW,202,1.6,4.0,91,0.37,RA,,2.50,WeatherDisplay:10.37,2013-06-03 20:53:00,
2013-06-03 16:58:00,63.5,61.1,29.77,SSW,202,1.6,9.2,92,0.37,RA,,2.51,WeatherDisplay:10.37,2013-06-03 20:58:00,
2013-06-03 17:03:00,63.5,61.1,29.77,SSE,158,1.8,4.6,92,0.37,RA,,2.51,WeatherDisplay:10.37,2013-06-03 21:03:00,
2013-06-03 17:08:00,63.5,61.1,29.76,West,270,2.4,4.0,92,0.37,RA,,2.52,WeatherDisplay:10.37,2013-06-03 21:08:00,
2013-06-03 17:13:00,63.5,61.1,29.76,SSW,202,2.4,4.0,92,0.35,RA,,2.52,WeatherDisplay:10.37,2013-06-03 21:13:00,
2013-06-03 17:18:00,63.7,61.3,29.76,SSW,202,0.9,4.6,92,0.31,,,2.52,WeatherDisplay:10.37,2013-06-03 21:18:00,
2013-06-03 17:23:00,63.7,61.3,29.76,SSW,202,2.4,4.6,92,0.30,CLR,,2.52,WeatherDisplay:10.37,2013-06-03 21:23:00,
2013-06-03 17:28:00,63.9,61.5,29.76,SSW,202,4.5,4.6,92,0.26,CLR,,2.52,WeatherDisplay:10.37,2013-06-03 21:28:00,
2013-06-03 17:33:00,64.0,61.7,29.76,SW,225,2.2,4.6,92,0.20,CLR,,2.52,WeatherDisplay:10.37,2013-06-03 21:33:00,
2013-06-03 17:38:00,64.0,61.7,29.76,SSW,202,6.9,8.1,92,0.14,CLR,,2.52,WeatherDisplay:10.37,2013-06-03 21:38:00,
2013-06-03 17:43:00,64.4,62.0,29.76,SSW,202,1.8,4.0,92,0.09,CLR,,2.52,WeatherDisplay:10.37,2013-06-03 21:43:00,
2013-06-03 17:48:00,64.6,62.2,29.76,SSW,202,7.1,7.1,92,0.06,CLR,,2.52,WeatherDisplay:10.37,2013-06-03 21:48:00,
2013-06-03 17:53:00,64.6,61.9,29.77,SW,225,2.4,5.8,91,0.02,CLR,,2.52,WeatherDisplay:10.37,2013-06-03 21:53:00,
2013-06-03 17:58:00,64.6,61.9,29.77,WSW,248,4.0,4.0,91,0.01,CLR,,2.52,WeatherDisplay:10.37,2013-06-03 21:58:00,
2013-06-03 18:03:00,64.4,61.7,29.76,SW,225,4.7,4.7,91,0.01,CLR,,2.52,WeatherDisplay:10.37,2013-06-03 22:03:00,
2013-06-03 18:08:00,64.4,61.7,29.76,SSW,202,3.6,4.0,91,0.00,CLR,,2.52,WeatherDisplay:10.37,2013-06-03 22:08:00,
2013-06-03 18:13:00,64.2,61.5,29.76,WSW,248,1.1,5.8,91,0.00,CLR,,2.52,WeatherDisplay:10.37,2013-06-03 22:13:00,
2013-06-03 18:18:00,64.0,61.4,29.76,SW,225,4.7,4.7,91,0.00,CLR,,2.52,WeatherDisplay:10.37,2013-06-03 22:18:00,
2013-06-03 18:23:00,64.0,61.4,29.76,SW,225,1.8,4.0,91,0.00,CLR,,2.52,WeatherDisplay:10.37,2013-06-03 22:23:00,
2013-06-03 18:28:00,64.0,61.4,29.76,SW,225,3.3,4.0,91,0.00,CLR,,2.52,WeatherDisplay:10.37,2013-06-03 22:28:00,
2013-06-03 18:33:00,64.0,61.4,29.76,WSW,248,2.4,4.0,91,0.00,CLR,,2.52,WeatherDisplay:10.37,2013-06-03 22:33:00,
2013-06-03 18:38:00,64.0,61.4,29.76,WSW,248,5.4,5.4,91,0.00,CLR,,2.52,WeatherDisplay:10.37,2013-06-03 22:38:00,
2013-06-03 18:43:00,64.0,61.4,29.76,SSW,202,1.1,4.7,91,0.00,CLR,,2.52,WeatherDisplay:10.37,2013-06-03 22:43:00,
2013-06-03 18:48:00,64.0,61.4,29.76,SSW,202,6.4,6.4,91,0.00,CLR,,2.52,WeatherDisplay:10.37,2013-06-03 22:48:00,
2013-06-03 18:53:00,64.0,61.4,29.76,WSW,248,3.3,6.9,91,0.00,CLR,,2.52,WeatherDisplay:10.37,2013-06-03 22:53:00,
2013-06-03 18:58:00,64.0,61.7,29.76,WSW,248,3.3,4.0,92,0.00,CLR,,2.52,WeatherDisplay:10.37,2013-06-03 22:58:00,
2013-06-03 19:03:00,64.0,61.7,29.76,SSW,202,2.4,4.0,92,0.00,CLR,,2.52,WeatherDisplay:10.37,2013-06-03 23:03:00,
2013-06-03 19:08:00,64.0,61.7,29.76,SW,225,2.4,4.0,92,0.00,CLR,,2.52,WeatherDisplay:10.37,2013-06-03 23:08:00,
2013-06-03 19:13:00,64.0,61.7,29.76,SW,225,3.1,4.0,92,0.00,CLR,,2.52,WeatherDisplay:10.37,2013-06-03 23:13:00,
2013-06-03 19:18:00,64.0,61.7,29.76,SW,225,5.6,5.6,92,0.00,CLR,,2.52,WeatherDisplay:10.37,2013-06-03 23:18:00,
2013-06-03 19:23:00,64.2,61.8,29.76,SW,225,4.5,4.6,92,0.00,CLR,,2.52,WeatherDisplay:10.37,2013-06-03 23:23:00,
2013-06-03 19:28:00,64.2,61.8,29.76,West,270,3.8,4.6,92,0.00,CLR,,2.52,WeatherDisplay:10.37,2013-06-03 23:28:00,
2013-06-03 19:33:00,64.0,61.7,29.76,SSE,158,6.2,6.2,92,0.00,CLR,,2.52,WeatherDisplay:10.37,2013-06-03 23:33:00,
2013-06-03 19:38:00,64.0,61.7,29.76,SW,225,7.6,7.6,92,0.00,CLR,,2.52,WeatherDisplay:10.37,2013-06-03 23:38:00,
2013-06-03 19:43:00,64.0,61.7,29.76,South,180,2.9,4.0,92,0.00,CLR,,2.52,WeatherDisplay:10.37,2013-06-03 23:43:00,
2013-06-03 19:48:00,64.2,61.8,29.77,SSW,202,2.4,4.0,92,0.00,CLR,,2.52,WeatherDisplay:10.37,2013-06-03 23:48:00,
2013-06-03 19:53:00,64.2,61.8,29.77,SW,225,4.5,4.5,92,0.00,CLR,,2.52,WeatherDisplay:10.37,2013-06-03 23:53:00,
2013-06-03 19:58:00,64.2,61.8,29.77,SW,225,1.8,5.8,92,0.00,CLR,,2.52,WeatherDisplay:10.37,2013-06-03 23:58:00,
2013-06-03 20:03:00,64.4,62.0,29.76,South,180,0.0,4.0,92,0.00,CLR,,2.52,WeatherDisplay:10.37,2013-06-04 00:03:00,
2013-06-03 20:08:00,64.4,62.0,29.76,SSE,158,4.9,4.9,92,0.00,CLR,,2.52,WeatherDisplay:10.37,2013-06-04 00:08:00,
2013-06-03 20:13:00,64.4,62.0,29.76,SSW,202,4.7,4.7,92,0.00,CLR,,2.52,WeatherDisplay:10.37,2013-06-04 00:13:00,
2013-06-03 20:18:00,64.4,62.0,29.76,South,180,1.8,4.0,92,0.00,CLR,,2.52,WeatherDisplay:10.37,2013-06-04 00:18:00,
2013-06-03 20:23:00,64.4,62.0,29.76,SW,225,1.4,4.0,92,0.00,CLR,,2.52,WeatherDisplay:10.37,2013-06-04 00:23:00,
2013-06-03 20:28:00,64.2,61.8,29.76,SSW,202,1.6,4.0,92,0.00,CLR,,2.52,WeatherDisplay:10.37,2013-06-04 00:28:00,
2013-06-03 20:33:00,64.2,61.8,29.76,SW,225,0.5,4.0,92,0.00,CLR,,2.52,WeatherDisplay:10.37,2013-06-04 00:33:00,
2013-06-03 20:38:00,64.2,61.8,29.76,SW,225,0.5,4.0,92,0.00,CLR,,2.52,WeatherDisplay:10.37,2013-06-04 00:38:00,
2013-06-03 20:43:00,64.2,61.8,29.76,SW,225,0.7,4.0,92,0.00,CLR,,2.52,WeatherDisplay:10.37,2013-06-04 00:43:00,
2013-06-03 20:48:00,64.2,61.8,29.76,SSE,158,0.7,4.0,92,0.00,CLR,,2.52,WeatherDisplay:10.37,2013-06-04 00:48:00,
2013-06-03 20:53:00,64.4,62.0,29.76,South,180,2.4,4.6,92,0.00,CLR,,2.52,WeatherDisplay:10.37,2013-06-04 00:53:00,
2013-06-03 20:58:00,64.4,62.0,29.76,SW,225,2.4,4.0,92,0.00,CLR,,2.52,WeatherDisplay:10.37,2013-06-04 00:58:00,
2013-06-03 21:03:00,64.4,62.0,29.76,SW,225,2.2,4.0,92,0.00,CLR,,2.52,WeatherDisplay:10.37,2013-06-04 01:03:00,
2013-06-03 21:08:00,64.4,62.0,29.76,SW,225,1.6,4.0,92,0.00,CLR,,2.52,WeatherDisplay:10.37,2013-06-04 01:08:00,
2013-06-03 21:13:00,64.4,62.0,29.76,SW,225,3.3,4.0,92,0.00,CLR,,2.52,WeatherDisplay:10.37,2013-06-04 01:13:00,
2013-06-03 21:18:00,64.4,62.0,29.76,SW,225,4.0,4.0,92,0.00,CLR,,2.52,WeatherDisplay:10.37,2013-06-04 01:18:00,
2013-06-03 21:23:00,64.4,62.0,29.76,South,180,5.6,5.6,92,0.00,CLR,,2.52,WeatherDisplay:10.37,2013-06-04 01:23:00,
2013-06-03 21:28:00,64.2,61.8,29.76,SW,225,3.1,4.0,92,0.00,CLR,,2.52,WeatherDisplay:10.37,2013-06-04 01:28:00,
2013-06-03 21:33:00,64.2,61.8,29.76,SSW,202,2.2,4.0,92,0.00,CLR,,2.52,WeatherDisplay:10.37,2013-06-04 01:33:00,
2013-06-03 21:38:00,64.0,61.7,29.77,SW,225,1.1,4.6,92,0.00,CLR,,2.52,WeatherDisplay:10.37,2013-06-04 01:38:00,
2013-06-03 21:43:00,64.0,61.7,29.77,WSW,248,4.5,4.6,92,0.00,CLR,,2.52,WeatherDisplay:10.37,2013-06-04 01:43:00,
2013-06-03 21:48:00,64.0,61.7,29.77,SSW,202,0.5,4.0,92,0.00,CLR,,2.52,WeatherDisplay:10.37,2013-06-04 01:48:00,
2013-06-03 21:53:00,64.0,61.7,29.77,SSW,202,1.1,4.6,92,0.00,CLR,,2.52,WeatherDisplay:10.37,2013-06-04 01:53:00,
2013-06-03 21:58:00,64.0,61.7,29.77,SSW,202,1.6,4.6,92,0.00,CLR,,2.52,WeatherDisplay:10.37,2013-06-04 01:58:00,
2013-06-03 22:03:00,64.0,61.7,29.77,SSW,202,1.6,4.0,92,0.00,CLR,,2.52,WeatherDisplay:10.37,2013-06-04 02:03:00,
2013-06-03 22:08:00,63.9,61.5,29.77,SSW,202,0.9,4.0,92,0.00,CLR,,2.52,WeatherDisplay:10.37,2013-06-04 02:08:00,
2013-06-03 22:13:00,64.0,61.7,29.76,SW,225,1.1,4.0,92,0.00,CLR,,2.52,WeatherDisplay:10.37,2013-06-04 02:13:00,
2013-06-03 22:18:00,64.0,61.7,29.76,SW,225,2.4,4.0,92,0.00,CLR,,2.52,WeatherDisplay:10.37,2013-06-04 02:18:00,
2013-06-03 22:23:00,64.0,61.7,29.76,SW,225,1.6,4.0,92,0.00,CLR,,2.52,WeatherDisplay:10.37,2013-06-04 02:23:00,
2013-06-03 22:28:00,64.0,61.7,29.76,SSW,202,0.0,4.0,92,0.00,CLR,,2.52,WeatherDisplay:10.37,2013-06-04 02:28:00,
2013-06-03 22:33:00,64.0,61.7,29.76,SSW,202,0.5,4.0,92,0.00,CLR,,2.52,WeatherDisplay:10.37,2013-06-04 02:33:00,
2013-06-03 22:38:00,64.0,61.7,29.76,SE,135,2.0,4.0,92,0.00,CLR,,2.52,WeatherDisplay:10.37,2013-06-04 02:38:00,
2013-06-03 22:43:00,64.0,61.7,29.76,SSW,202,1.4,4.0,92,0.00,CLR,,2.52,WeatherDisplay:10.37,2013-06-04 02:43:00,
2013-06-03 22:48:00,64.0,61.7,29.75,SW,225,0.9,4.0,92,0.00,CLR,,2.52,WeatherDisplay:10.37,2013-06-04 02:48:00,
2013-06-03 22:53:00,63.9,61.5,29.75,SW,225,0.2,4.0,92,0.00,CLR,,2.52,WeatherDisplay:10.37,2013-06-04 02:53:00,
2013-06-03 22:58:00,63.9,61.5,29.75,WSW,248,0.5,4.0,92,0.00,CLR,,2.52,WeatherDisplay:10.37,2013-06-04 02:58:00,
2013-06-03 23:03:00,63.9,61.5,29.75,WNW,292,0.7,4.0,92,0.00,CLR,,2.52,WeatherDisplay:10.37,2013-06-04 03:03:00,
2013-06-03 23:08:00,63.9,61.5,29.74,SW,225,2.6,4.0,92,0.00,CLR,,2.52,WeatherDisplay:10.37,2013-06-04 03:08:00,
2013-06-03 23:13:00,63.7,61.3,29.74,SSW,202,0.7,4.0,92,0.00,CLR,,2.52,WeatherDisplay:10.37,2013-06-04 03:13:00,
2013-06-03 23:18:00,63.7,61.3,29.74,WSW,248,1.4,4.0,92,0.00,CLR,,2.52,WeatherDisplay:10.37,2013-06-04 03:18:00,
2013-06-03 23:23:00,63.7,61.3,29.74,SW,225,1.8,4.0,92,0.00,CLR,,2.52,WeatherDisplay:10.37,2013-06-04 03:23:00,
2013-06-03 23:28:00,63.7,61.3,29.74,SW,225,0.0,4.0,92,0.00,CLR,,2.52,WeatherDisplay:10.37,2013-06-04 03:28:00,
2013-06-03 23:33:00,63.5,61.1,29.74,WSW,248,0.5,4.0,92,0.00,CLR,,2.52,WeatherDisplay:10.37,2013-06-04 03:33:00,
2013-06-03 23:38:00,63.5,61.1,29.74,SSW,202,0.0,4.0,92,0.00,CLR,,2.52,WeatherDisplay:10.37,2013-06-04 03:38:00,
2013-06-03 23:43:00,63.5,61.1,29.74,SSE,158,0.0,4.0,92,0.00,CLR,,2.52,WeatherDisplay:10.37,2013-06-04 03:43:00,
2013-06-03 23:48:00,63.5,61.1,29.74,SW,225,0.0,4.0,92,0.00,CLR,,2.52,WeatherDisplay:10.37,2013-06-04 03:48:00,
2013-06-03 23:53:00,63.5,61.1,29.74,SW,225,1.1,4.0,92,0.00,CLR,,2.52,WeatherDisplay:10.37,2013-06-04 03:53:00,
2013-06-03 23:58:00,63.3,61.0,29.74,WSW,248,2.4,4.0,92,0.00,CLR,,2.52,WeatherDisplay:10.37,2013-06-04 03:58:00,